Monarch Pass, CO

6:30 AM MDT on July 28, 2017 (GMT -0600)
Monarch Pass

Weather History for KMYP - November, 2012

Change the Weather History Date:

Saturday, November 10, 2012

  Actual Average (KALS) Record (KALS)
Temperature  
Mean Temperature 13 °F -  
Max Temperature 23 °F 50 °F 71 °F (1980)
Min Temperature 3 °F 15 °F -8 °F (1950)
Degree Days  
Heating Degree Days 52    
Moisture  
Dew Point 12 °F    
Average Humidity 91    
Maximum Humidity 100    
Minimum Humidity 79    
Precipitation  
Precipitation 0.00 in - - ()
Sea Level Pressure  
Sea Level Pressure 29.73 in    
Wind  
Wind Speed 40 mph (SW)    
Max Wind Speed 50 mph    
Max Gust Speed 56 mph    
Averages and records for this station are not official NWS values.
T = Trace of Precipitation, MM = Missing Value Source: NWS Daily Summary

Daily Weather History Graph

Daily Weather History Graph

Search for Another Location

Airport or City:

Trip Planner

Search our weather history database for the weather conditions in past years. The results will help you decide how hot, cold, wet, or windy it might be!

Date:

Astronomy

Nov. 10, 2012 Rise Set
Actual Time 6:41 AM MST 4:55 PM MST
Civil Twilight 6:13 AM MST 5:23 PM MST
Nautical Twilight 5:41 AM MST 5:55 PM MST
Astronomical Twilight 5:10 AM MST 6:26 PM MST
Moon 2:52 AM MST (11/10) 2:42 PM MST (11/10)
Length of Visible Light 11h 10m
Length of Day
10h 14m
Waning Crescent, 14% of the Moon is Illuminated
Nov 10
Waning Crescent
Nov 13
New
Nov 20
First Quarter
Nov 28
Full
Dec 6
Last Quarter

Hourly Weather History & Observations

Time (MST) Temp. Windchill Dew Point Humidity Pressure Visibility Wind Dir Wind Speed Gust Speed Precip Events Conditions
12:15 AM 23.0 °F - 19.4 °F 86% 29.89 in - North - - N/A   Unknown
12:35 AM 23.0 °F - 19.4 °F 86% 29.88 in - North - - N/A   Overcast
12:55 AM 23.0 °F - 21.2 °F 93% 29.87 in - North - - N/A   Overcast
1:15 AM 23.0 °F - 21.2 °F 93% 29.86 in - North - - N/A   Overcast
1:35 AM 23.0 °F 4.4 °F 21.2 °F 93% 29.84 in - SSW 34.5 mph - N/A   Overcast
1:55 AM 23.0 °F - 21.2 °F 93% 29.83 in - North - - N/A   Overcast
2:15 AM 23.0 °F - 21.2 °F 93% 29.82 in - North - - N/A   Overcast
2:35 AM 23.0 °F - 21.2 °F 93% 29.80 in - North - - N/A   Overcast
2:55 AM 23.0 °F - 23.0 °F 100% 29.78 in - North - - N/A   Overcast
3:15 AM 23.0 °F - 23.0 °F 100% 29.77 in - North - - N/A   Overcast
3:35 AM 23.0 °F - 23.0 °F 100% 29.76 in - North - - N/A   Overcast
3:55 AM 23.0 °F - 21.2 °F 93% 29.74 in - North - - N/A   Overcast
4:15 AM 23.0 °F 3.0 °F 21.2 °F 93% 29.73 in - SW 41.4 mph - N/A   Overcast
4:35 AM 23.0 °F - 23.0 °F 100% 29.71 in - North - - N/A   Overcast
5:15 AM 23.0 °F 1.7 °F 23.0 °F 100% 29.71 in - SW 49.5 mph 56.4 mph N/A   Overcast
5:35 AM 23.0 °F 2.6 °F 23.0 °F 100% 29.70 in - SW 43.7 mph 56.4 mph N/A   Overcast
5:55 AM 23.0 °F 3.4 °F 23.0 °F 100% 29.70 in - SW 39.1 mph 50.6 mph N/A   Overcast
6:15 AM 23.0 °F 3.7 °F 23.0 °F 100% 29.70 in - SW 38.0 mph 44.9 mph N/A   Overcast
6:35 AM 21.2 °F - 21.2 °F 100% 29.70 in - North - - N/A   Overcast
6:55 AM 21.2 °F - 19.4 °F 93% 29.71 in - North - - N/A   Overcast
7:15 AM 21.2 °F - 19.4 °F 93% 29.71 in - North - - N/A   Overcast
7:35 AM 21.2 °F - 19.4 °F 93% 29.71 in - North - - N/A   Overcast
7:55 AM 21.2 °F - 19.4 °F 93% 29.72 in - North - - N/A   Overcast
8:15 AM 19.4 °F - 17.6 °F 93% 29.72 in - North - - N/A   Overcast
8:35 AM 19.4 °F - 17.6 °F 93% 29.72 in - North - - N/A   Overcast
8:55 AM 19.4 °F - 17.6 °F 93% 29.70 in - North - - N/A   Overcast
9:15 AM 17.6 °F - 15.8 °F 93% 29.70 in - North - - N/A   Overcast
9:35 AM 17.6 °F - 14.0 °F 86% 29.69 in - North - - N/A   Overcast
9:55 AM 17.6 °F - 14.0 °F 86% 29.70 in - North - - N/A   Overcast
10:15 AM 15.8 °F - 14.0 °F 93% 29.73 in - North - - N/A   Overcast
10:35 AM 17.6 °F - 14.0 °F 86% 29.72 in - North - - N/A   Overcast
10:55 AM 15.8 °F - 12.2 °F 86% 29.71 in - North - - N/A   Overcast
11:15 AM 14.0 °F - 12.2 °F 93% 29.71 in - North - - N/A   Overcast
11:35 AM 14.0 °F - 12.2 °F 93% 29.69 in - North - - N/A   Overcast
11:55 AM 14.0 °F - 12.2 °F 93% 29.68 in - North - - N/A   Overcast
12:15 PM 14.0 °F - 12.2 °F 93% 29.68 in - North - - N/A   Overcast
12:35 PM 14.0 °F - 10.4 °F 86% 29.67 in - North - - N/A   Overcast
12:55 PM 14.0 °F - 10.4 °F 86% 29.66 in - North - - N/A   Overcast
1:15 PM 12.2 °F - 10.4 °F 92% 29.66 in - North - - N/A   Overcast
1:35 PM 12.2 °F - 10.4 °F 92% 29.64 in - North - - N/A   Overcast
1:55 PM 12.2 °F - 8.6 °F 85% 29.64 in - North - - N/A   Overcast
2:15 PM 10.4 °F - 8.6 °F 92% 29.65 in - North - - N/A   Overcast
2:35 PM 10.4 °F - 8.6 °F 92% 29.66 in - North - - N/A   Unknown
2:55 PM 10.4 °F - 6.8 °F 85% 29.67 in - North - - N/A   Overcast
3:15 PM 10.4 °F - 8.6 °F 92% 29.67 in - North - - N/A   Overcast
3:35 PM 10.4 °F - 6.8 °F 85% 29.67 in - North - - N/A   Unknown
3:55 PM 8.6 °F - 5.0 °F 85% 29.67 in - North - - N/A   Unknown
4:15 PM 8.6 °F - 5.0 °F 85% 29.69 in - North - - N/A   Unknown
4:35 PM 8.6 °F - 3.2 °F 79% 29.68 in - North - - N/A   Unknown
4:55 PM 6.8 °F - 3.2 °F 85% 29.71 in - North - - N/A   Unknown
5:15 PM 5.0 °F - 3.2 °F 92% 29.71 in - North - - N/A   Unknown
5:35 PM 5.0 °F - 3.2 °F 92% 29.71 in - North - - N/A   Unknown
5:55 PM 5.0 °F - 3.2 °F 92% 29.72 in - North - - N/A   Unknown
6:15 PM 5.0 °F - 3.2 °F 92% 29.73 in - North - - N/A   Unknown
6:35 PM 5.0 °F - 1.4 °F 85% 29.74 in - North - - N/A   Overcast
6:55 PM 5.0 °F - 3.2 °F 92% 29.75 in - North - - N/A   Overcast
7:15 PM 5.0 °F - 1.4 °F 85% 29.76 in - North - - N/A   Unknown
7:35 PM 5.0 °F - 1.4 °F 85% 29.77 in - North - - N/A   Mostly Cloudy
8:35 PM 5.0 °F - 1.4 °F 85% 29.78 in - North - - N/A   Mostly Cloudy
9:15 PM 3.2 °F - 1.4 °F 92% 29.78 in - North - - N/A   Unknown
9:35 PM 3.2 °F - -0.4 °F 85% 29.78 in - North - - N/A   Unknown
9:55 PM 3.2 °F - -0.4 °F 85% 29.78 in - North - - N/A   Unknown
10:15 PM 3.2 °F - -0.4 °F 85% 29.77 in - North - - N/A   Unknown
10:35 PM 3.2 °F - -0.4 °F 85% 29.75 in - North - - N/A   Unknown
10:55 PM 3.2 °F - -0.4 °F 85% 29.74 in - North - - N/A   Unknown
11:15 PM 3.2 °F - -0.4 °F 85% 29.75 in - North - - N/A   Unknown
11:35 PM 3.2 °F - -0.4 °F 85% 29.76 in - North - - N/A   Unknown
11:55 PM 3.2 °F - -0.4 °F 85% 29.76 in - North - - N/A   Overcast